TimeMST,TemperatureF,Dew PointF,Humidity,Sea Level PressureIn,VisibilityMPH,Wind Direction,Wind SpeedMPH,Gust SpeedMPH,PrecipitationIn,Events,Conditions,WindDirDegrees,DateUTC
12:53 AM,35.1,12.9,40,30.14,10.0,South,9.2,-,N/A,,Clear,170,2013-03-05 07:53:00
1:53 AM,28.9,16.0,58,30.16,10.0,South,12.7,-,N/A,,Clear,180,2013-03-05 08:53:00
2:53 AM,30.0,16.0,56,30.14,10.0,South,13.8,-,N/A,,Clear,170,2013-03-05 09:53:00
3:53 AM,30.0,16.0,56,30.12,10.0,South,16.1,-,N/A,,Clear,170,2013-03-05 10:53:00
4:53 AM,30.9,17.1,57,30.11,10.0,SSE,11.5,-,N/A,,Clear,160,2013-03-05 11:53:00
5:53 AM,30.2,17.6,60,30.06,10.0,South,9.2,-,N/A,,Clear,170,2013-03-05 12:53:00
6:53 AM,28.9,17.1,61,30.11,10.0,South,13.8,-,N/A,,Clear,170,2013-03-05 13:53:00
7:53 AM,28.9,17.1,61,30.11,10.0,SSE,13.8,-,N/A,,Clear,160,2013-03-05 14:53:00
8:53 AM,33.1,18.0,54,30.11,10.0,South,13.8,-,N/A,,Clear,170,2013-03-05 15:53:00
9:53 AM,37.0,18.0,46,30.09,10.0,South,15.0,-,N/A,,Clear,170,2013-03-05 16:53:00
10:53 AM,44.1,17.1,34,30.06,10.0,South,16.1,-,N/A,,Scattered Clouds,170,2013-03-05 17:53:00
11:53 AM,48.0,16.0,28,30.01,10.0,SSE,20.7,27.6,N/A,,Clear,150,2013-03-05 18:53:00
12:53 PM,50.0,18.0,28,29.98,10.0,SE,17.3,25.3,N/A,,Clear,140,2013-03-05 19:53:00
1:53 PM,51.1,19.0,28,29.95,10.0,SSE,24.2,31.1,N/A,,Clear,160,2013-03-05 20:53:00
2:53 PM,54.0,19.9,26,29.91,10.0,SSE,20.7,29.9,N/A,,Clear,150,2013-03-05 21:53:00
3:53 PM,53.1,19.9,27,29.90,10.0,SSE,19.6,27.6,N/A,,Clear,160,2013-03-05 22:53:00
4:53 PM,52.0,21.9,31,29.88,10.0,SSE,15.0,-,N/A,,Clear,160,2013-03-05 23:53:00
5:53 PM,51.1,23.0,33,29.87,10.0,SSE,15.0,-,N/A,,Overcast,150,2013-03-06 00:53:00
6:53 PM,46.9,25.0,42,29.87,10.0,SSE,11.5,-,N/A,,Partly Cloudy,150,2013-03-06 01:53:00
7:53 PM,44.1,26.1,49,29.85,10.0,South,10.4,-,N/A,,Clear,180,2013-03-06 02:53:00
8:53 PM,42.1,24.1,49,29.83,10.0,South,11.5,-,N/A,,Clear,180,2013-03-06 03:53:00
9:53 PM,39.9,23.0,51,29.81,10.0,South,12.7,21.9,N/A,,Clear,170,2013-03-06 04:53:00
10:53 PM,39.0,23.0,53,29.78,10.0,South,16.1,-,N/A,,Mostly Cloudy,170,2013-03-06 05:53:00
11:53 PM,39.0,24.1,55,29.74,10.0,SSE,13.8,-,N/A,,Mostly Cloudy,150,2013-03-06 06:53:00